SDM2020 ULLI-UWKD

Flight info

Callsign SDM2020
Flight time N/A
Altitude 39000
Route SUGIN1A/28R SUGI1A SUGIN T873 NIRGI T73 DESUD P164 ROKUR T784 ADMUL L94 UNORO T788 KOROM KORO1T
Aircraft A20N/M-VGD/A

Departure

Time N/A
Airport Pulkovo Airport (ULLI)

Arrival

Time 2026-04-28 17:49
Airport Kazan International Airport (UWKD)
Time Latitude Longitude Altitude Speed Heading
2026-04-28 17:25 56.02494 46.69783 38466 ft 478 kts 115°
2026-04-28 17:25 56.01307 46.75302 37881 ft 477 kts 115°
2026-04-28 17:26 56.00120 46.80805 37098 ft 480 kts 115°
2026-04-28 17:26 55.98926 46.86335 36330 ft 483 kts 115°
2026-04-28 17:26 55.97709 46.91964 35589 ft 485 kts 115°
2026-04-28 17:26 55.96504 46.97540 34910 ft 486 kts 115°
2026-04-28 17:27 55.95304 47.03090 34231 ft 486 kts 115°
2026-04-28 17:27 55.94087 47.08701 33512 ft 487 kts 115°
2026-04-28 17:27 55.92871 47.14282 32799 ft 489 kts 115°
2026-04-28 17:27 55.91644 47.19902 32157 ft 491 kts 115°
2026-04-28 17:28 55.90405 47.25555 31517 ft 492 kts 115°
2026-04-28 17:28 55.87897 47.36850 30283 ft 491 kts 116°
2026-04-28 17:28 55.86643 47.42455 29575 ft 492 kts 116°
2026-04-28 17:29 55.85379 47.48100 28578 ft 499 kts 116°
2026-04-28 17:29 55.84111 47.53775 27870 ft 496 kts 116°
2026-04-28 17:29 55.82851 47.59431 27079 ft 495 kts 116°
2026-04-28 17:30 55.80331 47.70727 25284 ft 493 kts 116°
2026-04-28 17:30 55.77810 47.81956 23155 ft 489 kts 116°
2026-04-28 17:30 55.76550 47.87530 22227 ft 484 kts 116°
2026-04-28 17:31 55.75313 47.92982 21351 ft 479 kts 116°
2026-04-28 17:31 55.72858 48.03770 19620 ft 468 kts 116°
2026-04-28 17:32 55.70525 48.13982 18051 ft 458 kts 116°
2026-04-28 17:32 55.69953 48.16483 17661 ft 456 kts 116°
2026-04-28 17:32 55.68985 48.20712 16999 ft 452 kts 116°
2026-04-28 17:32 55.68127 48.24447 16426 ft 448 kts 116°
2026-04-28 17:33 55.66974 48.29461 15645 ft 443 kts 116°
2026-04-28 17:33 55.65807 48.34523 14834 ft 438 kts 116°
2026-04-28 17:33 55.64668 48.39445 14045 ft 434 kts 117°
2026-04-28 17:33 55.63918 48.42673 13528 ft 431 kts 117°
2026-04-28 17:34 55.62561 48.49255 12449 ft 432 kts 105°
2026-04-28 17:34 55.62385 48.54557 11701 ft 434 kts 92°
2026-04-28 17:34 55.62485 48.59832 10925 ft 431 kts 90°
2026-04-28 17:34 55.62611 48.65069 10186 ft 426 kts 91°
2026-04-28 17:35 55.62714 48.70242 9710 ft 414 kts 92°
2026-04-28 17:35 55.62792 48.75241 9437 ft 399 kts 92°
2026-04-28 17:35 55.62850 48.80048 9170 ft 384 kts 92°
2026-04-28 17:35 55.62895 48.84648 8930 ft 371 kts 92°
2026-04-28 17:36 55.62936 48.89168 8684 ft 359 kts 93°
2026-04-28 17:36 55.63074 48.93477 8447 ft 351 kts 81°
2026-04-28 17:36 55.64034 48.97350 8221 ft 342 kts 51°
2026-04-28 17:36 55.65797 48.99896 8053 ft 323 kts 19°
2026-04-28 17:37 55.67885 49.00598 7881 ft 294 kts 346°
2026-04-28 17:37 55.69681 48.99406 7723 ft 260 kts 312°
2026-04-28 17:37 55.70712 48.97062 7576 ft 234 kts 289°
2026-04-28 17:37 55.71265 48.94471 7414 ft 219 kts 277°
2026-04-28 17:38 55.71464 48.91876 7264 ft 205 kts 265°
2026-04-28 17:38 55.71312 48.89467 7105 ft 193 kts 253°
2026-04-28 17:38 55.70958 48.87190 6883 ft 189 kts 252°
2026-04-28 17:38 55.70625 48.84974 6563 ft 189 kts 253°
2026-04-28 17:39 55.70188 48.82801 6247 ft 188 kts 239°
2026-04-28 17:39 55.69388 48.81005 5958 ft 188 kts 224°
2026-04-28 17:39 55.67233 48.78348 5349 ft 188 kts 217°
2026-04-28 17:40 55.66139 48.77070 5053 ft 188 kts 217°
2026-04-28 17:40 55.65065 48.75814 4772 ft 187 kts 217°
2026-04-28 17:40 55.63982 48.74548 4488 ft 186 kts 217°
2026-04-28 17:40 55.62898 48.73280 4201 ft 185 kts 216°
2026-04-28 17:41 55.61835 48.72037 3994 ft 182 kts 216°
2026-04-28 17:41 55.60775 48.70806 3977 ft 185 kts 213°
2026-04-28 17:41 55.59568 48.69979 3970 ft 190 kts 195°
2026-04-28 17:41 55.58225 48.69909 3969 ft 197 kts 179°
2026-04-28 17:42 55.56901 48.70630 3968 ft 207 kts 160°
2026-04-28 17:42 55.56117 48.71683 3956 ft 219 kts 136°
2026-04-28 17:42 55.55538 48.75194 3967 ft 240 kts 84°
2026-04-28 17:42 55.56263 48.77859 3980 ft 245 kts 49°
2026-04-28 17:43 55.57433 48.80053 3980 ft 248 kts 45°
2026-04-28 17:43 55.58634 48.82235 3972 ft 249 kts 45°
2026-04-28 17:43 55.59816 48.84445 3969 ft 248 kts 46°
2026-04-28 17:43 55.60983 48.86693 3959 ft 248 kts 47°
2026-04-28 17:44 55.62142 48.88966 3924 ft 249 kts 47°
2026-04-28 17:44 55.63359 48.91083 3919 ft 248 kts 37°
2026-04-28 17:44 55.64756 48.92904 3693 ft 248 kts 32°
2026-04-28 17:44 55.66179 48.94589 3457 ft 245 kts 31°
2026-04-28 17:45 55.67582 48.96229 3228 ft 244 kts 32°
2026-04-28 17:45 55.68988 48.97893 2999 ft 241 kts 32°
2026-04-28 17:45 55.70293 48.99721 2743 ft 239 kts 54°
2026-04-28 17:45 55.70805 49.02280 2662 ft 210 kts 102°
2026-04-28 17:46 55.70274 49.04458 2683 ft 189 kts 140°
2026-04-28 17:46 55.69351 49.06136 2688 ft 191 kts 143°
2026-04-28 17:46 55.68447 49.07905 2682 ft 194 kts 138°
2026-04-28 17:46 55.67664 49.09752 2529 ft 185 kts 133°
2026-04-28 17:47 55.66949 49.11610 2172 ft 181 kts 132°
2026-04-28 17:47 55.66264 49.13411 1914 ft 171 kts 132°
2026-04-28 17:47 55.65628 49.15064 1736 ft 155 kts 133°
2026-04-28 17:47 55.65238 49.16072 1669 ft 139 kts 133°
2026-04-28 17:48 55.64545 49.17905 1520 ft 134 kts 131°
2026-04-28 17:48 55.64035 49.19245 1190 ft 131 kts 133°
2026-04-28 17:48 55.63514 49.20540 949 ft 130 kts 131°
2026-04-28 17:48 55.62985 49.21862 796 ft 131 kts 128°
2026-04-28 17:49 55.62474 49.23195 625 ft 130 kts 129°
2026-04-28 17:49 55.61961 49.24511 491 ft 130 kts 129°
2026-04-28 17:49 55.61451 49.25790 351 ft 121 kts 128°
2026-04-28 17:49 55.61251 49.26260 359 ft 0 kts 130°
2026-04-28 17:50 55.61232 49.26311 360 ft 10 kts 126°
2026-04-28 17:50 55.61174 49.26459 361 ft 19 kts 122°
2026-04-28 17:51 55.61101 49.26665 364 ft 18 kts 116°
2026-04-28 17:51 55.61145 49.26833 368 ft 15 kts 37°
2026-04-28 17:51 55.61158 49.26851 368 ft 0 kts 36°
2026-04-28 17:52 55.61160 49.26853 368 ft 1 kts 36°
2026-04-28 17:52 55.61172 49.26869 368 ft 3 kts 34°
2026-04-28 17:52 55.61224 49.26946 370 ft 6 kts 79°
2026-04-28 17:53 55.61212 49.27016 371 ft 6 kts 118°
2026-04-28 17:53 55.61188 49.27086 373 ft 7 kts 122°
2026-04-28 17:53 55.61160 49.27163 374 ft 7 kts 122°
2026-04-28 17:53 55.61129 49.27246 376 ft 8 kts 125°
2026-04-28 17:54 55.61091 49.27335 378 ft 9 kts 125°
2026-04-28 17:54 55.61053 49.27434 380 ft 10 kts 124°
2026-04-28 17:54 55.61012 49.27539 382 ft 11 kts 124°
2026-04-28 17:54 55.60963 49.27666 385 ft 13 kts 124°
2026-04-28 17:55 55.60914 49.27794 388 ft 12 kts 124°
2026-04-28 17:55 55.60868 49.27915 392 ft 11 kts 124°
2026-04-28 17:55 55.60825 49.28028 395 ft 11 kts 123°
2026-04-28 17:55 55.60778 49.28150 397 ft 12 kts 123°
2026-04-28 17:56 55.60727 49.28286 398 ft 13 kts 123°
2026-04-28 17:56 55.60674 49.28421 402 ft 12 kts 126°
2026-04-28 17:56 55.60624 49.28540 404 ft 11 kts 125°
2026-04-28 17:56 55.60594 49.28675 405 ft 11 kts 97°
2026-04-28 17:57 55.60587 49.28820 407 ft 12 kts 94°
2026-04-28 17:57 55.60579 49.28978 406 ft 13 kts 94°
2026-04-28 17:57 55.60593 49.29137 408 ft 13 kts 57°
2026-04-28 17:57 55.60663 49.29245 410 ft 13 kts 35°
2026-04-28 17:58 55.60740 49.29339 410 ft 14 kts 32°
2026-04-28 17:58 55.60807 49.29429 409 ft 9 kts 58°
2026-04-28 17:58 55.60788 49.29543 410 ft 9 kts 121°
2026-04-28 17:58 55.60752 49.29636 413 ft 8 kts 124°
2026-04-28 17:59 55.60720 49.29719 414 ft 8 kts 124°
2026-04-28 17:59 55.60686 49.29806 414 ft 6 kts 124°
2026-04-28 17:59 55.60673 49.29885 415 ft 7 kts 67°
2026-04-28 17:59 55.60713 49.29957 414 ft 7 kts 35°
2026-04-28 18:00 55.60720 49.29966 414 ft 0 kts 35°